www.pogodaiklimat.ru

Погода и климат >> Архив погоды >> Россия >> Камчатский край >> Большерецк


ПОГОДА в Большерецке

  • Прогноз погоды в Большерецке
  • Монитор погоды в Большерецке
  • Климат города

АРХИВ ПОГОДЫ в Большерецке

Время (UTC), дата Ветер
(напр.,м/с)
 
Видим.   Явления Облачность Т
(С)
Тd
(С)
f
(%)
Тe
(С)
Тes
(С)
Комфортность P
(гПа)
Po
(гПа)
Тmin
(С)
Tmax
(С)
R
(мм)
R24
(мм)
S
(см)
00 20.05 З 1 20 км в посл. час туман 8/6 600 м
[Sc Ac trans]
+6.8 +3.6 80 +6 +11 1020.3 1016.6
03 20.05 СЗ 5 50 км 8/8 600 м
[Sc]
+8.4 +3.9 73 +5 +6 1018.7 1015.0
06 20.05 СЗ 5 50 км 8/3 600 м
[Sc Ac trans]
+6.7 +3.7 81 +3 +4 1017.2 1013.5
09 20.05 С 5 50 км 6/4 600 м
[Sc Ac trans]
+5.0 +3.2 88 0 0 1016.2 1012.5 +9.0
12 20.05 Ю 3 20 км 8/8 600 м
[Sc]
+3.6 +3.1 97 -1 -1 1016.0 1012.3
15 20.05 ЮЗ 2 20 км 10/10 600 м
[Sc]
+3.7 0.0 77 +1 +1 1014.9 1011.2
18 20.05 С 3 50 км 10/10 600 м
[Sc]
+2.6 +0.2 84 -2 -2 1013.6 1009.8
21 20.05 С 2 50 км 10/10 600 м
[Sc]
+5.2 +2.1 80 +3 +3 1012.2 1008.5 +2.2
00 21.05 В 8-12
{12}
50 км 10/10 600 м
[Sc]
+9.0 -2.2 45 +5 +5 1009.4 1005.7
03 21.05 В 6-10
{12}
50 км 10/10 600 м
[Sc]
+8.2 -1.4 51 +5 +5 1006.4 1002.7
06 21.05 СВ 3
{10}
50 км 10/10 600 м
[Sc]
+7.2 -0.8 57 +5 +5 1004.4 1000.7
09 21.05 С 7 20 км слабый ливневой дождь 10/10 600 м
[Cb cap]
+7.3 +2.1 70 +3 +3 1001.2 997.6 +9.7
12 21.05 С 3-10
{14}
10 км слабый ливневой дождь 10/10 600 м
[Cb cap]
+5.5 +3.5 87 +2 +2 999.3 995.7
15 21.05 В 2
{10}
10 км слабый ливневой дождь 10/10 600 м
[Cb cap]
+3.7 +2.8 94 +1 +1 996.5 992.8
18 21.05 З 4 20 км в посл. час ливневой дождь 10/6 600 м
[Cb cap Ac und]
+3.3 +2.8 97 -2 -2 995.2 991.5
21 21.05 СЗ 4 20 км в посл. час ливневой дождь 10/10 600 м
[Cb cap]
+5.8 +4.9 94 +2 +2 993.8 990.2 +3.1 8
00 22.05 СЗ 8-14
{14}
10 км слабый ливневой дождь 10/10 300 м
[Cb cap]
+3.8 +3.2 96 -3 -3 994.3 990.6
03 22.05 СЗ 8-12
{15}
10 км в посл. час ливневой дождь 10/10 300 м
[St]
+2.8 +2.0 94 -4 -4 994.3 990.6
06 22.05 СЗ 7-10
{13}
20 км {ливн. осадки} 10/10 300 м
[St]
+2.5 +1.5 93 -4 -4 994.5 990.8
09 22.05 СЗ 5-10
{11}
20 км в посл. час ливневой дождь 10/10 300 м
[Cb cap]
+1.9 +1.0 94 -4 -4 995.4 991.7 +6.1 3
12 22.05 СЗ 4
{10}
20 км {ливн. осадки} 10/10 300 м
[St]
+0.9 +0.5 97 -5 -5 996.4 992.7
15 22.05 СЗ 3 н/о н/о +1.7 +0.8 94 -3 -3 996.9 993.2
18 22.05 СЗ 3 20 км {ливн. осадки} 10/10 300 м
[St]
+0.9 +0.8 99 -4 -4 997.6 993.8
21 22.05 СЗ 3 500 м слабая морось {туман} ?/? +1.6 +1.6 100 -3 -3 998.9 995.2 +0.8 0.3
00 23.05 З 3 500 м туман {морось} ?/? +2.6 +2.5 99 -2 -2 999.6 995.9
03 23.05 З 2 20 км {туман} 10/10 300 м
[St]
+5.0 +2.7 85 +2 +2 1000.4 996.7
06 23.05 СЗ 4 20 км {туман} 10/10 300 м
[St]
+4.1 +2.5 89 -0 -0 1002.3 998.6
09 23.05 СЗ 4 20 км 8/8 600 м
[Sc]
+3.6 +2.6 93 -1 -1 1004.3 1000.6 +5.6 0.0
12 23.05 СЗ 4 20 км 10/10 600 м
[Sc]
+2.5 +2.2 98 -3 -3 1006.0 1002.2
15 23.05 СЗ 3 500 м туман ?/? +0.8 +0.8 100 -4 -4 1007.4 1003.7
18 23.05 З 2 500 м слабая морось {туман} ?/? +0.7 +0.7 100 -3 -3 1008.9 1005.1
21 23.05 С 2 20 км в посл. час туман {морось} 10/10 300 м
[St]
+1.6 +1.6 100 -2 -2 1009.5 1005.7 +0.5 0.3
00 24.05 З 2 20 км {морось, туман} 8/8 600 м
[Sc]
+6.9 +3.1 77 +5 +8 1009.4 1005.7
03 24.05 З 4 50 км 4/4 600 м
[Cu hum]
+7.1 +3.4 77 +4 +10 1009.3 1005.6
06 24.05 З 4 50 км 4/3 600 м
[Cu hum Ac lent]
+7.3 +3.4 76 +4 +6 1009.6 1006.0
09 24.05 СЗ 2 50 км 8/5 600 м
[Sc Ci fib]
+3.4 +2.1 91 0 0 1010.8 1007.1 +7.9
12 24.05 З 1 20 км в посл. час туман 3/0
[Ci fib]
-0.4 -0.4 100 -3 -3 1011.4 1007.6
15 24.05 СВ 1 н/о н/о -1.1 -1.1 100 -3 -3 1011.5 1007.7
18 24.05 СВ 1 200 м туман 8/0
[Ac trans]
-0.6 -0.6 100 -3 -3 1011.1 1007.3
21 24.05 штиль 0 50 км в посл. час туман 9/6 600 м
[Sc Ac trans]
+5.9 +5.8 99 +5 +6 1011.6 1007.9 -1.6
00 25.05 ЮВ 4 50 км {туман} 10/6 600 м
[Sc Ac und]
+9.9 +1.4 55 +8 +9 1011.5 1007.8
03 25.05 Ю 4 50 км 10/6 600 м
[Sc Ac und]
+11.8 +1.0 47 +10 +11 1011.0 1007.4
06 25.05 З 2 50 км 10/8 600 м
[Sc Ac und]
+6.9 +2.8 75 +5 +5 1011.8 1008.1
09 25.05 СЗ 1 50 км 10/8 600 м
[Sc Ac und]
+6.4 +3.4 81 +5 +5 1012.7 1009.0 +12.2
12 25.05 ЮВ 3 20 км 9/6 600 м
[Cb calv Ac trans]
+6.0 +1.6 73 +3 +3 1013.2 1009.5
15 25.05 Ю 1 20 км 10/10 600 м
[Sc]
+5.5 +1.8 77 +4 +4 1013.6 1009.9
18 25.05 С 2 50 км 10/10 600 м
[Sc]
+4.7 +3.2 90 +2 +2 1013.9 1010.2
21 25.05 ЮВ 2 50 км 10/10 600 м
[Cb calv]
+6.7 +2.5 75 +5 +5 1014.3 1010.6 +4.5
00 26.05 Ю 4 50 км 10/10 600 м
[Sc]
+9.5 +2.9 63 +7 +7 1014.0 1010.3
03 26.05 ЮЗ 4 50 км 10/6 600 м
[Sc Ac und]
+8.6 +3.3 69 +6 +7 1013.6 1009.9
06 26.05 СЗ 2 50 км 10/8 600 м
[Sc Ac und]
+7.8 +3.4 74 +6 +6 1012.4 1008.8
09 26.05 З 1 50 км 10/10 600 м
[Sc]
+7.3 +2.5 72 +7 +7 1011.9 1008.2 +11.1
12 26.05 Ю 2 20 км 10/10 600 м
[Sc]
+6.2 +0.9 69 +4 +4 1011.4 1007.7
15 26.05 В 2 20 км слабый ливневой дождь 10/10 600 м
[Cb cap]
+3.3 +2.4 94 0 0 1009.8 1006.1
18 26.05 В 5 10 км слабый ливневой дождь 10/10 600 м
[Cb cap]
+3.5 +2.3 92 -2 -2 1007.7 1004.0
21 26.05 СВ 4 10 км слабый ливневой дождь 10/10 600 м
[Cb cap]
+4.3 +3.5 95 -0 -0 1007.1 1003.4 +3.1 2

 

Местоположение метеостанции Большерецк (Камчатский край, Россия): широта 52.83 долгота 156.30 высота над уровнем моря 30 м.

В архиве по умолчанию представлена погода в Большерецке за последнюю неделю. Архивные данные за месяц целиком и за предыдущие месяцы, начиная с января 2011 года, Вы можете получить, выбрав интересующий диапазон дат из раскрывающегося списка и нажав кнопку "Ввод!".


*Определитесь, кто Вы:
робот инопланетянин человек

Внимание! Время в таблицах - всемирное. Для получения местного времени необходимо прибавить поправку, которая в Большерецке равна 12 ч.

Смотрите также архив погоды в соседних городах и на ближайших метеорологических станциях:

Погода в Начиках (Камчатский край, Россия) (99 км)
Погода в Сосновке (Камчатский край, Россия) (137 км)
Погода в Петропавловск-Камч. 2 (Камчатский край, Россия) (150 км)
Погода в Озерной (Камчатский край, Россия) (150 км)
Погода в Петропавловск-Камчатском (Камчатский край, Россия) (155 км)
Погода в Водопадной (Камчатский край, Россия) (161 км)
Погода в Петропавловском Маяке (Камчатский край, Россия) (161 км)
Погода в Соболево (Камчатский край, Россия) (166 км)
Погода в Пущино (Камчатский край, Россия) (188 км)
Погода на Мысе Лопатка (Камчатский край, Россия) (219 км)

Пояснения к столбцам:

Ветер - указаны скорость ветра в м/с - средняя за 10 мин, порывы в срок и между сроками (в фигурных скобках) и направление, откуда дует ветер: С - северный, СВ - северо-восточный, В - восточный, ЮВ - юго-восточный, Ю - южный, ЮЗ - юго-западный, З - западный, СЗ - северо-западный.
Видимость - горизонтальная дальность видимости в метрах или километрах. При видимости от 1 до 10 км при отсутствии осадков обычно наблюдается дымка, при ухудшении видимости до 1 км и менее - туман. В сухую погоду видимость может ухудшаться дымом, пылью или мглою.
Явления - указаны атмосферные явления, наблюдавшиеся в срок или в последний час перед сроком; фигурными скобками обозначены явления, наблюдавшиеся между сроками (за 1-3 часа до срока); квадратными скобками обозначены град или гололедные отложения с указанием их диаметра в мм.
Облачность - указаны через наклонную черту общая и нижняя облачность в баллах и высота нижней границы облаков в метрах; квадратными скобками обозначены формы облаков: Ci - перистые, Cs - перисто-слоистые, Cc - перисто-кучевые, Ac - высококучевые, As - высокослоистые, Sc - слоисто-кучевые, Ns - слоисто-дождевые, Cu - кучевые, Cb - кучево-дождевые. Подробнее классификацию облаков см. в Атласе облаков (PDF).
T - Температура воздуха - температура, измеренная на высоте 2 м над землей.
Td - Температура точки росы - температура, при понижении до которой содержащийся в воздухе водяной пар достигнет насыщения.
f - Относительная влажность воздуха - влажноcть воздуха, измеренная на высоте 2 м над землей.
Te - Эффективная температура - температура, которую ощущает одетый по сезону человек в тени. Характеристика душности погоды. При расчете учитывается влияние влажности воздуха и скорости ветра на теплоощущения человека.
Tes - Эффективная температура на солнце - температура, которую ощущает человек, с поправкой на солнечный нагрев. Характеристика знойности погоды. Зависит от высоты солнца над горизонтом, облачности и скорости ветра. Ночью, в пасмурную погоду, а также при ветре 12 м/с и более поправка равна нулю.
P - Атмосферное давление - приведенное к уровню моря атмосферное давление.
Po - Атмосферное давление - измеренное на уровне метеостанции атмосферное давление.
Tmin - Минимальная температура - минимум температуры воздуха на высоте 2 м над землей.
Tmax - Максимальная температура - максимум температуры воздуха на высоте 2 м над землей.
R - Количество осадков - Количество выпавших осадков за период времени, мм. При наведении курсора мыши на число - период времени, за который выпало указанное количество осадков.
R24 - Количество осадков - Количество выпавших осадков за 24 часа, мм.
S - Снежный покров - Высота снежного покрова, см. При наведении курсора мыши на число - состояние снежного покрова и степень покрытия местности в баллах.